ONEWEB-0051, 45155

Orbit data source: Space-Track

ONEWEB-0051, 45155 is a payload satellite owned by One Web (UK) in LEO that was launched on Thu, 06 Feb 2020 UTC via a SOYUZ-2-1B launch vehicle from the Tyuratam Missile And Space Complex (TTMTR). Payload-class satellites include a variety of spacecraft equipped with specific instruments for various scientific and technological missions. These include communications satellites like Starlink; space stations such as the ISS; scientific satellites like the Hubble; Earth observation satellites from companies like Planet Labs, Umbra, and HawkEye 360; GPS; miniature CubeSats for education and research; and military/defense satellites.

Loading next visibility...
Identifier
45155, 2020-008AA
Orbit
LEO
Last TLE update
6 hours ago
Origin
Manufacturer
One Web
Mission
Operational Commercial Communications
Bus & Motor
ARROW, Unknown motor
Mass
148 kg wet, ~140 kg dry
Launch date (UTC)
2020-02-06 (5 years ago)
Launch vehicle
SOYUZ-2-1B
Launch site
Tyuratam Missile And Space Complex (TTMTR)
Object type
Payload
Rocket body
Debris
Shape & HBR
Trap Box + 2 Pan, 5 m
Radar Cross Section
2.957 m², Large (>1 m²)

Expand to show TLE details & history

TLE from 6 hours ago
0 ONEWEB-0051
1 45155U 20008AA  25182.19681856  .00000595  00000-0  16427-2 0  9993
2 45155  87.8838  91.0383 0002025  77.1843 282.9511 13.11416563265863
Epoch: 2025-07-01T04:43Z
TLE epoch observation values (Epoch: 2025-07-01T04:43:25.123Z)
Latitude
-0.00004°
Longitude
100.68788°
Altitude
1,220.229 km
Speed
7.244 km/s
True Right ascension
06h 04m 09s
True Declination
0° 00' 00"
Sunlit
Object was in daylight at epoch
Visualization orbit readout
Latitude
33.84752°
Longitude
102.05367°
Altitude
1,221.002 km
Speed
7.247 km/s
Apparent Right ascension
07h 49m 38s
Apparent Declination
0° 49' 31"
Sunlit
Object is in daylight
Visualization observer readout
Local Sidereal Time
22:01:44
Azimuth
44.792° NE
Elevation
-39.326°
Doppler factor
1
Orbital elements
Apogee altitude
1,216.34 km
Perigee altitude
1,213.265 km
Semi-major axis
7,592.939 km
Eccentricity
0.0002
Inclination
87.8838°
RAAN
91.0383°
Arg. of periapsis
77.1843°
True anomaly
Unknown
Mean anomaly
282.9511°
Eccentric anomaly
Unknown
Mean motion
3.28041 °/min
Orbital period
109.74 mins
BSTAR
0.0016427
Loading maneuver chart data...
Loading SW <> Apogee altitude chart data...
Loading historical data...
Loading historical data...
Loading historical data...
Loading historical data...
Loading historical data...
Loading historical data...
Loading historical data...

ONEWEB-0051 Visibility forecast

Observer location: undefined°, undefined°

Span
Click to sort rows by Start time (UTC) header in descending order
Start Az.
Max El. time (UTC)
Max El. Az.
Max El.
End time (UTC)
End Az.
13 mins2025-07-01 17:38:18.217Z149.695° SSE2025-07-01 17:45:18.217Z72.401° E34.476°2025-07-01 17:51:18.217Z14.749° NNE
10 mins2025-07-01 19:30:18.217Z228.066° WSW2025-07-01 19:35:18.217Z287.373° WNW28.507°2025-07-01 19:40:18.217Z337.521° N
11 mins2025-07-02 05:09:18.217Z25.456° NE2025-07-02 05:14:18.217Z83.776° E29.838°2025-07-02 05:20:18.217Z142.961° SSE
12 mins2025-07-02 06:58:18.217Z341.735° N2025-07-02 07:04:18.217Z273.049° WNW33.454°2025-07-02 07:10:18.217Z213.134° SW
|